Regional Weather Roundup
Issued by NWS Little Rock, AR

Home | Current Version | Previous Version | Graphics & Text | Print | Product List | Glossary On
Versions: 1 2 3 4 5 6 7 8 9 10 11 12 13 14 15 16 17 18 19 20 21 22 23 24 25 26 27 28 29 30 31 32 33 34 35 36 37 38 39 40 41 42 43 44 45 46 47 48 49 50
000
ASUS44 KLZK 271205
RWRLZK

WEATHER ROUNDUP FOR ARKANSAS
NATIONAL WEATHER SERVICE LITTLE ROCK AR
700 AM CDT WED AUG 27 2014

NOTE: "FAIR" INDICATES FEW OR NO CLOUDS BELOW 12,000 FEET WITH NO
SIGNIFICANT WEATHER AND/OR OBSTRUCTIONS TO VISIBILITY.

ARZ001-003-010-029-271300-
NORTHWEST ARKANSAS

CITY           SKY/WX    TMP DP  RH WIND       PRES   REMARKS
FAYETTEVILLE   CLEAR     67  67 100 CALM      30.11S FOG
6HR MIN TEMP:  67; 6HR MAX TEMP:  72;

FORT SMITH     CLEAR     75  72  90 CALM      30.05F
6HR MIN TEMP:  75; 6HR MAX TEMP:  80;

HARRISON       CLEAR     70  69  97 W5        30.12S FOG
6HR MIN TEMP:  69; 6HR MAX TEMP:  75;

BENTONVILLE    CLEAR     72  68  88 S3        30.11S
6HR MIN TEMP:  72; 6HR MAX TEMP:  77;

ROGERS         CLEAR     72  68  87 CALM      30.12R
6HR MIN TEMP:  71; 6HR MAX TEMP:  76;

SILOAM SPGS    CLEAR     70  63  78 E3        30.11S
6HR MIN TEMP:  70; 6HR MAX TEMP:  75;

HIGHFILL       CLEAR     68  65  90 CALM      30.10S
6HR MIN TEMP:  68; 6HR MAX TEMP:  74;

SPRINGDALE     CLEAR     72  70  94 E5        30.13R
$$

ARZ004-005-016-271300-
NORTH CENTRAL ARKANSAS

CITY           SKY/WX    TMP DP  RH WIND       PRES   REMARKS
BATESVILLE     MOCLDY    72  72 100 CALM      30.08R
6HR MIN TEMP:  72; 6HR MAX TEMP:  77;

FLIPPIN        CLEAR     70  64  83 CALM      30.09S
6HR MIN TEMP:  70; 6HR MAX TEMP:  77;

MTN HOME       CLEAR     71  69  93 CALM      30.09R FOG
6HR MIN TEMP:  71; 6HR MAX TEMP:  78;

$$

ARZ040-041-271300-
WEST CENTRAL ARKANSAS

CITY           SKY/WX    TMP DP  RH WIND       PRES   REMARKS
MENA           CLEAR     70  68  94 CALM      30.10R
MOUNT IDA      CLEAR     70  68  93 CALM      30.07R FOG
6HR MIN TEMP:  70; 6HR MAX TEMP:  74;

$$

ARZ009-017-025-026-028-271300-
NORTHEAST ARKANSAS

CITY           SKY/WX    TMP DP  RH WIND       PRES   REMARKS
CORNING          N/A     73  73 100 E3        30.08S FOG
JONESBORO      CLEAR     73  71  93 CALM      30.07R
6HR MIN TEMP:  72; 6HR MAX TEMP:  76;

NEWPORT        CLEAR     75  73  93 NE3       30.08R
6HR MIN TEMP:  75; 6HR MAX TEMP:  79;

WALNUT RIDGE   CLEAR     73  66  78 CALM      30.07S
6HR MIN TEMP:  72; 6HR MAX TEMP:  75;

BLYTHEVILLE    CLEAR     72  71  97 CALM      30.09R
6HR MIN TEMP:  71; 6HR MAX TEMP:  75;

$$

ARZ022-023-033-042-044-271300-
CENTRAL ARKANSAS

CITY           SKY/WX    TMP DP  RH WIND       PRES   REMARKS
LITTLE ROCK    MOCLDY    77  73  87 CALM      30.07R
6HR MIN TEMP:  77; 6HR MAX TEMP:  81;

N LITTLE ROCK    N/A     77  74  90 N3        30.07R
6HR MIN TEMP:  75; 6HR MAX TEMP:  79;

JACKSONVILLE   CLEAR     74  73  96 SE2       30.07R
6HR MIN TEMP:  73; 6HR MAX TEMP:  77; 6HR PCP: TRACE;

SEARCY         PTCLDY    73  73 100 CALM      30.08R FOG
6HR MIN TEMP:  73; 6HR MAX TEMP:  76;

HOT SPRINGS    CLEAR     73  70  90 CALM      30.08R
6HR MIN TEMP:  73; 6HR MAX TEMP:  77;

RUSSELLVILLE   PTCLDY    73  71  93 CALM      30.08R FOG
6HR MIN TEMP:  72; 6HR MAX TEMP:  76;

CLINTON        MOCLDY    70  70 100 CALM      30.09S FOG
$$

ARZ036-271300-
EAST ARKANSAS

CITY           SKY/WX    TMP DP  RH WIND       PRES   REMARKS
WEST MEMPHIS   CLEAR     72  72 100 CALM      30.07R
6HR MIN TEMP:  71; 6HR MAX TEMP:  75;

$$

ARZ050-053-066-070-073-271300-
SOUTHWEST ARKANSAS

CITY           SKY/WX    TMP DP  RH WIND       PRES   REMARKS
ARKADELPHIA    FOG       70  70 100 CALM      30.06S VSB 1/2
6HR MIN TEMP:  70; 6HR MAX TEMP:  74;

CAMDEN         FOG       68  64  88 CALM      30.05R VSB<1/4
TEXARKANA      FOG       70  70 100 CALM      30.05R VSB 3/4
6HR MIN TEMP:  70; 6HR MAX TEMP:  74;

EL DORADO      CLEAR     69  67  93 CALM      30.05S
6HR MIN TEMP:  68; 6HR MAX TEMP:  73;

DE QUEEN       FOG       70  69  97 CALM      30.04R VSB 1/4
6HR MIN TEMP:  69; 6HR MAX TEMP:  73;

$$

ARZ056-057-069-271300-
SOUTHEAST ARKANSAS

CITY           SKY/WX    TMP DP  RH WIND       PRES   REMARKS
PINE BLUFF     PTCLDY    72  70  93 CALM      30.06S
6HR MIN TEMP:  70; 6HR MAX TEMP:  75;

STUTTGART      CLEAR     73  70  88 N3        30.08R
6HR MIN TEMP:  73; 6HR MAX TEMP:  79;

MONTICELLO     CLEAR     69  66  90 CALM      30.06R
6HR MIN TEMP:  69; 6HR MAX TEMP:  76;


$$





USA.gov is the U.S. government's official web portal to all federal, state and local government web resources and services.